Home   Weather   Carrickmacross   Past weeks
Flag for Ireland

Past Weather in Carrickmacross, Ireland — Yesterday and Last 2 Weeks

Now
57 °F

Cool.


Feels Like: 57 °F
Forecast: 62 / 45 °F
Wind: 5 mph from North

Location: Glenanne

Current Time: May 23, 2019 at 10:15:18 pm

Latest Report: May 23, 2019 at 9:00 pm


Visibility: 31 mi

Pressure: 30.00 "Hg

Humidity: 74%

Dew Point: 49 °F

Location of CarrickmacrossLocation

Past Weather in Carrickmacross — Graph

°F

Carrickmacross Temperature Yesterday

Maximum temperature yesterday: 60 °F (at 6:00 pm)
Minimum temperature yesterday: 43 °F (at 2:00 am)
Average temperature yesterday: 51 °F

High & Low Weather Summary for the Past Weeks

 TemperatureHumidityPressure
High63 °F (May 15, 4:00 pm)98% (May 10, 5:00 am)30.62 "Hg (May 10, 5:00 am)
Low40 °F (May 10, 3:00 am)29% (May 14, 2:00 pm)29.35 "Hg (May 8, 8:00 pm)
Average50 °F76%30.02 "Hg
* Reported May 8 8:00 pm — May 23 8:00 pm, Carrickmacross. Weather by CustomWeather, © 2019

Note: Actual official high and low records may vary slightly from our data, if they occured in-between our weather recording intervals... More about our weather records

Advertising

Carrickmacross Weather History for the Previous 24 Hours

Scroll right to see more
 ConditionsComfort  
Time TempWeatherWind HumidityBarometerVisibility
8:00 pm
Thu, May 23
58 °FCool.2 mph73%29.99 "Hg28 mi
7:00 pm59 °FCool.5 mph71%29.98 "Hg31 mi
6:00 pm59 °FCool.6 mph68%29.98 "Hg25 mi
5:00 pm61 °FCool.7 mph63%29.98 "Hg19 mi
4:00 pm62 °FCool.6 mph62%29.98 "Hg31 mi
3:00 pm58 °FCool.6 mph69%29.99 "Hg25 mi
2:00 pm60 °FCool.6 mph62%29.98 "Hg19 mi
1:00 pm60 °FCool.7 mph62%29.98 "Hg22 mi
12:00 pm58 °FCool.2 mph76%29.98 "Hg15 mi
11:00 am55 °FCool.2 mph84%29.99 "Hg9 mi
10:00 am53 °FCool.1 mph88%29.99 "Hg6 mi
9:00 am51 °FLight rain. Cloudy.1 mph92%29.99 "Hg6 mi
8:00 am49 °FCool.1 mph95%30.00 "Hg4 mi
7:00 am48 °FCool.2 mph95%29.99 "Hg4 mi
6:00 am48 °FCool.1 mph94%29.99 "Hg6 mi
5:00 am47 °FLight rain. Overcast.No wind94%30.00 "Hg6 mi
4:00 am47 °FSmoke.2 mph94%30.00 "Hg6 mi
3:00 am47 °FSmoke.2 mph93%30.01 "Hg6 mi
2:00 am48 °FCool.1 mph90%30.02 "Hg7 mi
1:00 am49 °FCool.1 mph88%30.02 "Hg10 mi
12:00 am50 °FCool.3 mph86%30.03 "Hg14 mi
11:00 pm
Wed, May 22
49 °FCool.6 mph88%30.03 "Hg14 mi
10:00 pm50 °FCool.6 mph85%30.04 "Hg12 mi
Weather by CustomWeather, © 2019

See weather overview